This is the latest recevied weather packets stored in our database for station/object K0NV. If no packets are shown the sender has not sent any weather packets the latest 10 day(s).
| Time | Temp. | Humidity | Pressure | Rain* | Wind** | Luminosity | Snow |
|---|---|---|---|---|---|---|---|
| 1777767823 | 15.56° C | 51% | 1020.3 hPa | 0 mm | - | 23 W/m² | - |
| 1777767519 | 15.56° C | 49% | 1020.2 hPa | 0 mm | - | 25 W/m² | - |
| 1777767215 | 15.56° C | 48% | 1020.3 hPa | 0 mm | - | 27 W/m² | - |
| 1777766913 | 15.56° C | 48% | 1020 hPa | 0 mm | - | 30 W/m² | - |
| 1777766610 | 16.11° C | 46% | 1020.5 hPa | 0 mm | - | 41 W/m² | - |
| 1777766307 | 16.11° C | 48% | 1020.2 hPa | 0 mm | - | 69 W/m² | - |
| 1777766004 | 16.67° C | 44% | 1020.4 hPa | 0 mm | - | 81 W/m² | - |
| 1777765701 | 17.22° C | 44% | 1020.4 hPa | 0 mm | - | 95 W/m² | - |
| 1777765398 | 17.78° C | 45% | 1020.3 hPa | 0 mm | - | 108 W/m² | - |
| 1777765094 | 17.22° C | 44% | 1020.4 hPa | 0 mm | - | 124 W/m² | - |
| 1777764791 | 17.78° C | 45% | 1020.6 hPa | 0 mm | - | 136 W/m² | - |
| 1777764488 | 17.78° C | 42% | 1020.4 hPa | 0 mm | - | 140 W/m² | - |
| 1777764184 | 17.78° C | 45% | 1020.3 hPa | 0 mm | - | 170 W/m² | - |
| 1777763881 | 17.78° C | 43% | 1020.3 hPa | 0 mm | - | 183 W/m² | - |
| 1777763579 | 18.33° C | 43% | 1020.3 hPa | 0 mm | - | 183 W/m² | - |
| 1777763277 | 18.33° C | 42% | 1020.4 hPa | 0 mm | - | 199 W/m² | - |
| 1777762975 | 18.33° C | 43% | 1020.4 hPa | 0 mm | - | 229 W/m² | - |
| 1777762671 | 18.33° C | 44% | 1020.5 hPa | 0 mm | - | 250 W/m² | - |
| 1777762368 | 17.78° C | 44% | 1020.4 hPa | 0 mm | - | 252 W/m² | - |
| 1777762064 | 18.33° C | 43% | 1020.6 hPa | 0 mm | - | 265 W/m² | - |
| 1777761761 | 18.89° C | 43% | 1020.4 hPa | 0 mm | - | 259 W/m² | - |
| 1777761458 | 18.33° C | 43% | 1020.5 hPa | 0 mm | - | 276 W/m² | - |
| 1777761156 | 18.33° C | 43% | 1020.6 hPa | 0 mm | - | 330 W/m² | - |
| 1777760854 | 18.89° C | 41% | 1020.5 hPa | 0 mm | - | 343 W/m² | - |
| 1777760550 | 18.89° C | 42% | 1020.4 hPa | 0 mm | - | 336 W/m² | - |
* Rain latest hour (hover to see other rain measurements)
** Current wind speed in m/s (hover to see current wind gust speed)